Regional Weather Roundup
Issued by NWS

Home | Current Version | Previous Version | Graphics & Text | Print | Product List | Glossary On
Versions: 1 2 3 4 5 6 7 8 9 10 11 12 13 14 15 16 17 18 19 20 21 22 23 24 25 26 27 28 29 30 31 32 33 34 35 36 37 38 39 40 41 42 43 44 45 46 47 48 49 50
344
ASUS44 KJAN 282110
RWRMS

MISSISSIPPI HOURLY WEATHER ROUNDUP
NATIONAL WEATHER SERVICE JACKSON MS
300 PM CST WED JAN 28 2015

NOTE: "FAIR: INDICATES FEW OR NO CLOUDS BELOW 12,000 FEET WITH NO
SIGNIFICANT WEATHER AND/OR OBSTRUCTIONS TO VISIBILITY.

MSZ001>002-007>008-010>013-018>021-025>028-034>036-282200-
NORTHWEST MISSISSIPPI

CITY           SKY/WX    TMP DP  RH WIND       PRES   REMARKS
CLARKSDALE     FAIR      59  39  47 SE12      30.18F
CLEVELAND      FAIR      61  42  49 S10       30.17F
GREENWOOD      SUNNY     66  35  31 S7        30.19F
GREENVILLE     SUNNY     63  40  42 SE13      30.16F
GRENADA        FAIR      61  34  36 E8        30.20F
OLIVE BRANCH   MOSUNNY   57  32  38 S12       30.18F
OXFORD         FAIR      57  28  33 S7        30.21S
TUNICA         CLEAR     59  36  41 S13       30.18F
$$

MSZ003>006-009-014>017-022>024-029>033-037>039-282200-
NORTHEAST MISSISSIPPI

CITY           SKY/WX    TMP DP  RH WIND       PRES   REMARKS
COLUMBUS AFB   SUNNY     58  28  32 SE7       30.22F
CORINTH        FAIR      57  30  35 SE8       30.19F
GOLDN TRIANGLE SUNNY     55  30  38 S7        30.22F
STARKVILLE     FAIR      59  32  36 E5        30.21F
TUPELO         SUNNY     56  30  37 SW8       30.21F
$$

MSZ040-058-282200-
CENTRAL MISSISSIPPI

CITY           SKY/WX    TMP DP  RH WIND       PRES   REMARKS
JACKSON INTL   SUNNY     68  32  26 S7        30.19F
JACKSON HAWKNS SUNNY     68  32  26 SE8       30.20F
MERIDIAN KEY   SUNNY     64  25  22 NE6       30.22F
MERIDIAN NAS   SUNNY     63  23  21 E3        30.22F
RAYMOND        FAIR      72  66  83 S8        30.18F
VICKSBURG      SUNNY     70  37  29 S9        30.17F
$$

MSZ059>079-282200-
SOUTH MISSISSIPPI

CITY           SKY/WX    TMP DP  RH WIND       PRES   REMARKS
BROOKHAVEN     FAIR      70  37  30 CALM      30.21F
HATTIESBURG    SUNNY     67  33  28 E6        30.23F
MCCOMB         SUNNY     69  36  29 S7        30.20F
NATCHEZ        SUNNY     73  36  25 S7        30.18F
PINE BELT      SUNNY     64  30  27 CALM      30.23F
$$

MSZ080>082-282200-
COASTAL MISSISSIPPI

CITY           SKY/WX    TMP DP  RH WIND       PRES   REMARKS
BAY ST LOUIS   SUNNY     63  37  39 S7        30.24F
BILOXI         NOT AVBL
PASCAGOULA     SUNNY     64  40  41 S7        30.23S
GULFPORT       NOT AVBL
$$



USA.gov is the U.S. government's official web portal to all federal, state and local government web resources and services.